This is the latest recevied weather packets stored in our database for station/object K8DJB-1. If no packets are shown the sender has not sent any weather packets the latest 10 day(s).
| Time | Temp. | Humidity | Pressure | Rain* | Wind** | Luminosity | Snow |
|---|---|---|---|---|---|---|---|
| 1778029041 | 8.89° C | 60% | 1007.5 hPa | 0 mm | - | - | - |
| 1778028741 | 9.44° C | 60% | 1007.8 hPa | 0 mm | - | - | - |
| 1778028441 | 9.44° C | 60% | 1007.7 hPa | 0 mm | - | - | - |
| 1778028141 | 10° C | 61% | 1007.8 hPa | 0 mm | - | - | - |
| 1778027841 | 10° C | 59% | 1007.6 hPa | 0 mm | - | - | - |
| 1778027541 | 10° C | 54% | 1007.6 hPa | 0 mm | - | - | - |
| 1778027241 | 10° C | 51% | 1007.6 hPa | 0 mm | - | - | - |
| 1778026941 | 10° C | 51% | 1007.7 hPa | 0 mm | - | - | - |
| 1778026641 | 10° C | 52% | 1007.7 hPa | 0 mm | - | - | - |
| 1778026341 | 10° C | 51% | 1007.7 hPa | 0 mm | - | - | - |
| 1778026041 | 10.56° C | 50% | 1007.7 hPa | 0 mm | - | - | - |
| 1778025741 | 10.56° C | 51% | 1007.7 hPa | 0 mm | - | - | - |
| 1778025441 | 10.56° C | 50% | 1007.7 hPa | 0 mm | - | - | - |
| 1778025141 | 10.56° C | 49% | 1007.7 hPa | 0 mm | - | - | - |
| 1778024841 | 10.56° C | 50% | 1007.7 hPa | 0 mm | - | - | - |
| 1778024520 | 10.56° C | 50% | 1007.7 hPa | 0 mm | - | - | - |
| 1778024220 | 10.56° C | 49% | 1007.7 hPa | 0 mm | - | - | - |
| 1778023920 | 10.56° C | 49% | 1007.7 hPa | 0 mm | - | - | - |
| 1778023620 | 10.56° C | 48% | 1007.7 hPa | 0 mm | - | - | - |
| 1778023320 | 10.56° C | 46% | 1007.8 hPa | 0 mm | - | - | - |
| 1778023020 | 10.56° C | 46% | 1007.8 hPa | 0 mm | - | - | - |
| 1778022720 | 10.56° C | 47% | 1007.7 hPa | 0 mm | - | - | - |
| 1778022420 | 10.56° C | 47% | 1007.8 hPa | 0 mm | - | - | - |
| 1778022120 | 10.56° C | 47% | 1007.9 hPa | 0 mm | - | - | - |
| 1778021820 | 10.56° C | 45% | 1007.9 hPa | 0 mm | - | - | - |
* Rain latest hour (hover to see other rain measurements)
** Current wind speed in m/s (hover to see current wind gust speed)